Powrót do katalogu

STARLINK-33829

AktywnyŁącznośćVLEO
NORAD 63496·PAYLOAD·🇺🇸 United States

Wystrzelony Apr 7, 2025 z Vandenberg Space Force Base

Loading…

Następne Przeloty (najbliższe 24 godziny)

TLE

ŚwieżeSource: CelesTrak SupGP

Epoka: Sep 14, 2026, 21:40 UTC

1 63496C 25071D   26257.90326389 -.00016544  00000+0 -53219-3 0  2576
2 63496  53.1606 340.0332 0001192  82.5943 279.6816 15.31700477    15

Śledź STARLINK-33829 w czasie rzeczywistym z AllMySat

Download on the App Store